[[{"header":{"parameterUnit":"m.s-1","parameterCategory":1,"la1":30.2991,"la2":30.254,"lo1":-89.0895,"lo2":-89.0444,"dy":0.0017,"dx":0.0017,"nx":28,"ny":28,"refTime":"2026-02-16T03:00:00:Z","depth":0,"parameterNumber":2,"parameterNumberName":"U-component_of_WINDS"},"data":[0,0,0,0,0,0,0,0,0,0,0,0,0,0,0,0,0,0,0,0,0,0,0,0,0,0,0,0,0,0,0,0,0,0,0,0,0,0,0,0,0,0,0,0,0,0,0,0,0,0,0,0,0,0,0,0,0,0,-1.062,-1.062,0,-1.0628,-1.0628,-1.0628,-1.0612,-1.0611,-1.0611,-1.061,-1.0621,-1.0622,-1.0622,0,0,0,0,0,0,0,0,0,0,0,0,0,-1.0595,-1.0595,-1.062,-1.062,-1.062,-1.0628,-1.0628,-1.0628,-1.0612,-1.0611,-1.0611,-1.061,-1.0621,-1.0621,-1.0622,0,0,0,0,0,0,0,0,0,0,0,0,0,-1.0604,-1.0595,-1.062,-1.0613,-1.0612,-1.0628,-1.0628,-1.0628,-1.0612,-1.0611,-1.061,-1.061,-1.062,-1.0621,-1.0623,-1.0646,0,0,-1.0626,-1.0627,0,0,0,0,0,0,0,0,-1.0604,-1.0605,-1.0614,-1.0613,-1.0613,-1.0618,-1.0623,-1.0634,-1.0612,-1.0612,-1.061,-1.0609,-1.0621,-1.0622,-1.0625,-1.0646,-1.0647,-1.0626,-1.0627,-1.0627,-1.0628,0,0,0,0,0,0,0,-1.0603,-1.0605,-1.0623,-1.0614,-1.0613,-1.0611,-1.0611,-1.0625,-1.0621,-1.0612,-1.0611,-1.0612,-1.062,-1.0624,-1.0625,-1.0647,-1.0626,-1.0627,-1.0628,-1.0628,-1.069,-1.0691,0,0,0,0,0,0,-1.0603,-1.0604,-1.0623,-1.0623,-1.0606,-1.0612,-1.0612,-1.0617,-1.0621,-1.062,-1.0613,-1.0611,-1.0622,-1.0624,-1.0625,-1.0654,-1.0627,-1.0629,-1.0629,-1.0689,-1.069,-1.0691,0,0,0,0,0,0,-1.0602,-1.0605,-1.0622,-1.0613,-1.0615,-1.0613,-1.0618,-1.0618,-1.0621,-1.0621,-1.0621,-1.0617,-1.0622,-1.0624,-1.0641,-1.0654,-1.0629,-1.063,-1.0688,-1.0689,-1.0691,-1.071,0,0,0,0,0,0,-1.0602,-1.0605,-1.0612,-1.0614,-1.0616,-1.0636,-1.0619,-1.0618,-1.0623,-1.0621,-1.0625,-1.0625,-1.0621,-1.0639,-1.0642,-1.0655,-1.0631,-1.0687,-1.0689,-1.069,-1.0708,-1.0712,-1.0715,0,0,0,0,0,-1.0601,-1.0617,-1.0613,-1.0615,-1.0625,-1.0637,-1.0638,-1.0633,-1.0624,-1.0632,-1.0633,-1.0625,-1.0652,-1.0641,-1.0644,-1.0658,-1.0686,-1.0688,-1.069,-1.0706,-1.0711,-1.0715,0,0,0,0,0,0,-1.0617,-1.0617,-1.0612,-1.0629,-1.0633,-1.0634,-1.0644,-1.0638,-1.0646,-1.0644,-1.0638,-1.0639,-1.0658,-1.066,-1.0648,-1.0682,-1.0668,-1.0671,-1.0679,-1.0683,-1.0687,-1.0685,-1.0632,0,0,0,0,0,-1.0623,-1.0632,-1.0632,-1.0647,-1.0649,-1.0647,-1.0652,-1.0648,-1.0652,-1.0654,-1.0655,-1.0661,-1.0671,-1.0677,-1.0687,-1.0709,-1.071,-1.072,-1.0723,-1.0726,-1.0728,-1.0742,-1.0746,-1.0698,-1.0698,-1.0698,0,0,-1.0635,-1.0636,-1.0641,-1.065,-1.0653,-1.0663,-1.0648,-1.0659,-1.0667,-1.0656,-1.0672,-1.0674,-1.068,-1.07,-1.0709,-1.0702,-1.0742,-1.0729,-1.0731,-1.0732,-1.0744,-1.0749,-1.0753,-1.0699,-1.0699,-1.0699,0,0,-1.0661,-1.0662,-1.0676,-1.0679,-1.0683,-1.0682,-1.0686,-1.0688,-1.0689,-1.0705,-1.0697,-1.0708,-1.0725,-1.0729,-1.0734,-1.0766,-1.0759,-1.0769,-1.0787,-1.08,-1.0804,-1.0807,-1.0819,-1.0823,-1.0772,-1.0772,-1.0772,0,-1.0675,-1.0689,-1.0684,-1.0695,-1.07,-1.0691,-1.0705,-1.0709,-1.0717,-1.0721,-1.0713,-1.0736,-1.0739,-1.0761,-1.0769,-1.0773,-1.0778,-1.0768,-1.0803,-1.0807,-1.081,-1.0821,-1.0825,-1.0773,-1.0773,-1.0773,-1.0773,0,-1.0706,-1.0717,-1.0727,-1.0734,-1.074,-1.0754,-1.0752,-1.0759,-1.0756,-1.0756,-1.0774,-1.0778,-1.0788,-1.0794,-1.079,-1.0816,-1.0812,-1.0804,-1.079,-1.0816,-1.0826,-1.083,-1.0775,-1.0774,-1.0774,-1.0774,0,0,-1.0741,-1.0746,-1.075,-1.0754,-1.076,-1.0768,-1.0782,-1.0792,-1.0799,-1.0805,-1.0818,-1.0834,-1.0827,-1.0833,-1.0831,-1.0842,-1.0868,-1.0833,-1.0833,-1.084,-1.0898,-1.0903,-1.0908,-1.0865,-1.0865,-1.0866,-1.0898,0,-1.0767,-1.0789,-1.0786,-1.0808,-1.0819,-1.0811,-1.0824,-1.083,-1.0831,-1.0841,-1.0843,-1.0855,-1.0845,-1.0848,-1.086,-1.0862,-1.088,-1.086,-1.0877,-1.0877,-1.0874,-1.0914,-1.0919,-1.0948,-1.0902,-1.0902,-1.0903,0,-1.0799,-1.0807,-1.083,-1.0835,-1.084,-1.085,-1.086,-1.087,-1.0877,-1.0878,-1.0885,-1.0882,-1.0898,-1.0885,-1.0908,-1.0895,-1.0902,-1.0905,-1.0906,-1.0906,-1.0891,-1.0915,-1.0957,-1.0961,-1.0909,-1.0909,-1.0908,0,-1.0822,-1.0838,-1.0854,-1.0858,-1.0865,-1.0873,-1.0877,-1.0883,-1.089,-1.09,-1.0904,-1.0916,-1.0922,-1.0932,-1.0933,-1.0923,-1.0957,-1.0943,-1.0958,-1.0958,-1.0964,-1.0964,-1.1008,-1.097,-1.097,-1.097,-1.097,0,-1.0851,-1.0865,-1.0865,-1.0875,-1.0891,-1.0889,-1.0907,-1.0909,-1.0916,-1.0928,-1.0923,-1.0934,-1.0935,-1.0947,-1.0948,-1.0968,-1.0971,-1.0972,-1.0972,-1.0972,-1.0972,-1.0976,-1.0974,-1.0971,-1.0971,-1.0971,-1.0971,0,-1.0878,-1.0878,-1.0895,-1.0901,-1.0903,-1.0915,-1.0921,-1.0931,-1.0933,-1.0948,-1.0952,-1.0956,-1.097,-1.0972,-1.0989,-1.099,-1.1014,-1.1012,-1.101,-1.101,-1.1025,-1.1023,-1.1073,-1.1079,-1.1038,-1.1038,-1.1039,0,-1.0896,-1.0907,-1.0914,-1.0921,-1.0925,-1.0936,-1.0944,-1.0943,-1.0951,-1.0962,-1.0972,-1.0986,-1.0996,-1.1021,-1.1026,-1.1039,-1.1038,-1.1054,-1.1039,-1.104,-1.1038,-1.1037,-1.1038,-1.1056,-1.1057,-1.1057,-1.1057,0,-1.0927,-1.0927,-1.0937,-1.0948,-1.0956,-1.0965,-1.0973,-1.098,-1.0981,-1.099,-1.1005,-1.1014,-1.1032,-1.1046,-1.106,-1.1066,-1.1062,-1.1062,-1.1067,-1.1066,-1.1065,-1.1066,-1.1017,-1.1061,-1.106,-1.106,-1.106,-1.106,-1.095,-1.096,-1.0967,-1.0979,-1.0985,-1.0993,-1.1003,-1.1007,-1.1019,-1.1033,-1.1033,-1.1049,-1.1059,-1.1078,-1.1085,-1.1099,-1.1093,-1.1099,-1.1101,-1.1102,-1.1104,-1.1064,-1.1101,-1.1101,-1.1101,-1.1101,-1.1101,0,-1.0981,-1.0986,-1.0997,-1.1008,-1.1018,-1.1014,-1.1024,-1.1033,-1.1047,-1.1056,-1.1067,-1.1085,-1.11,-1.1107,-1.1122,-1.1132,-1.1131,-1.1136,-1.1135,-1.1137,-1.1107,-1.1102,-1.1137,-1.1137,-1.1137,-1.1137,-1.1137,-1.1137,-1.0998,-1.1015,-1.1016,-1.1037,-1.1042,-1.1057,-1.1063,-1.1072,-1.1079,-1.1099,-1.1111,-1.1116,-1.1125,-1.1141,-1.1156,-1.1158,-1.1163,-1.1169,-1.1171,-1.1142,-1.1139,-1.1135,-1.113,-1.1171,-1.1171,-1.1199,-1.1199,-1.1199]},{"header":{"parameterUnit":"m.s-1","parameterCategory":1,"la1":30.2991,"la2":30.254,"lo1":-89.0895,"lo2":-89.0444,"dy":0.0017,"dx":0.0017,"nx":28,"ny":28,"refTime":"2026-02-16T03:00:00:Z","depth":0,"parameterNumber":3,"parameterNumberName":"V-component_of_WINDS"},"data":[0,0,0,0,0,0,0,0,0,0,0,0,0,0,0,0,0,0,0,0,0,0,0,0,0,0,0,0,0,0,0,0,0,0,0,0,0,0,0,0,0,0,0,0,0,0,0,0,0,0,0,0,0,0,0,0,0,0,1.9711,1.971,0,1.9656,1.9656,1.9655,1.9637,1.9637,1.9637,1.9637,1.9577,1.9575,1.9573,0,0,0,0,0,0,0,0,0,0,0,0,0,1.9797,1.9796,1.9711,1.971,1.971,1.9656,1.9655,1.9655,1.9637,1.9637,1.9637,1.9637,1.9577,1.9575,1.9573,0,0,0,0,0,0,0,0,0,0,0,0,0,1.9753,1.9795,1.9711,1.9694,1.9692,1.9656,1.9655,1.9655,1.9636,1.9637,1.9637,1.9638,1.9578,1.9575,1.9573,1.9548,0,0,1.9564,1.9563,0,0,0,0,0,0,0,0,1.9755,1.9749,1.9697,1.9695,1.9693,1.9654,1.9664,1.9619,1.9636,1.9657,1.9637,1.9638,1.9602,1.9597,1.9586,1.9545,1.9543,1.9564,1.9562,1.9561,1.956,0,0,0,0,0,0,0,1.9758,1.9752,1.9689,1.9697,1.9694,1.9688,1.9683,1.9655,1.9628,1.9656,1.9654,1.9648,1.9601,1.9588,1.9584,1.9542,1.9564,1.9562,1.956,1.9559,1.9479,1.9479,0,0,0,0,0,0,1.9765,1.9754,1.9691,1.9688,1.9726,1.9687,1.968,1.9666,1.9628,1.9623,1.9648,1.9648,1.9593,1.9587,1.9582,1.9551,1.9561,1.9559,1.9557,1.948,1.9479,1.9479,0,0,0,0,0,0,1.9767,1.9759,1.9693,1.9721,1.9712,1.9685,1.9669,1.9665,1.9653,1.9623,1.9617,1.9641,1.9593,1.9586,1.9557,1.9549,1.9557,1.9555,1.948,1.948,1.9479,1.9489,0,0,0,0,0,0,1.9769,1.976,1.9751,1.9721,1.971,1.967,1.9669,1.9663,1.9648,1.9647,1.9614,1.9609,1.9593,1.9561,1.9554,1.9545,1.9553,1.9481,1.948,1.9479,1.949,1.9489,1.9489,0,0,0,0,0,1.9772,1.9755,1.9751,1.9743,1.9699,1.967,1.9664,1.9646,1.9648,1.9638,1.9619,1.961,1.9551,1.9559,1.9551,1.954,1.9481,1.948,1.9479,1.949,1.9489,1.9489,0,0,0,0,0,0,1.9783,1.9751,1.9745,1.9718,1.9697,1.9667,1.9654,1.9646,1.9623,1.9623,1.9601,1.9594,1.9567,1.9551,1.956,1.9515,1.9516,1.9513,1.9527,1.9526,1.9525,1.9529,1.955,0,0,0,0,0,1.9783,1.9763,1.9735,1.9714,1.9704,1.9681,1.9668,1.9656,1.9633,1.9623,1.9602,1.9579,1.9555,1.954,1.9516,1.9488,1.948,1.9477,1.9476,1.9476,1.9474,1.9458,1.9456,1.9475,1.9475,1.9475,0,0,1.9781,1.9761,1.9749,1.9716,1.9698,1.9677,1.9673,1.9651,1.9635,1.9619,1.9592,1.9575,1.9548,1.952,1.9506,1.9505,1.9467,1.9475,1.9475,1.9472,1.9456,1.9455,1.9453,1.9475,1.9475,1.9475,0,0,1.9767,1.975,1.9731,1.9714,1.9688,1.9673,1.9669,1.964,1.9629,1.9601,1.9589,1.9569,1.9529,1.951,1.9495,1.9476,1.9467,1.9469,1.9466,1.9451,1.9449,1.9448,1.944,1.9438,1.9467,1.9467,1.9467,0,1.9768,1.9737,1.9721,1.9701,1.9686,1.9673,1.9653,1.9636,1.9603,1.9593,1.9594,1.9543,1.9524,1.9491,1.9487,1.9475,1.9468,1.9472,1.9451,1.9449,1.9447,1.944,1.9438,1.9467,1.9467,1.9467,1.9467,0,1.9739,1.9718,1.9705,1.9676,1.966,1.9639,1.962,1.9605,1.9596,1.9581,1.9553,1.9529,1.9501,1.9493,1.9482,1.9458,1.9459,1.9455,1.9455,1.9446,1.9439,1.9436,1.9468,1.9468,1.9467,1.9467,0,0,1.9729,1.9693,1.9688,1.9675,1.9647,1.9629,1.9608,1.9583,1.957,1.9548,1.953,1.9497,1.9494,1.9477,1.9464,1.9451,1.9438,1.9449,1.9448,1.9447,1.9409,1.9412,1.9409,1.9432,1.9432,1.9431,1.9412,0,1.9711,1.9674,1.966,1.963,1.961,1.9598,1.958,1.956,1.9546,1.9526,1.951,1.9487,1.9485,1.9474,1.9461,1.9442,1.943,1.9444,1.9413,1.9412,1.942,1.9405,1.9407,1.939,1.9409,1.9408,1.9408,0,1.9684,1.9665,1.9633,1.9608,1.9599,1.9583,1.9558,1.954,1.9517,1.9508,1.949,1.9479,1.9456,1.9458,1.9425,1.9435,1.9422,1.9411,1.941,1.9406,1.9409,1.94,1.9384,1.9381,1.9404,1.9404,1.9404,0,1.968,1.9645,1.9622,1.9611,1.9581,1.957,1.9557,1.9534,1.952,1.9498,1.9489,1.9464,1.945,1.9431,1.9413,1.9417,1.9382,1.9383,1.9373,1.9373,1.9365,1.9365,1.9346,1.9358,1.9358,1.9358,1.9358,0,1.9661,1.9642,1.9619,1.9605,1.9583,1.9567,1.9546,1.9531,1.9512,1.9494,1.9482,1.9465,1.9443,1.9423,1.9409,1.9383,1.9377,1.9368,1.9364,1.9369,1.937,1.9359,1.9359,1.9357,1.9357,1.9358,1.9358,0,1.9651,1.9636,1.961,1.9585,1.9578,1.9563,1.9541,1.9525,1.9512,1.9489,1.9482,1.946,1.9436,1.9417,1.9385,1.9375,1.9349,1.9345,1.9357,1.9355,1.9345,1.9346,1.9317,1.9313,1.9329,1.9328,1.9328,0,1.964,1.9625,1.9599,1.9587,1.9575,1.9555,1.9541,1.9525,1.9511,1.9484,1.9472,1.9448,1.9427,1.9389,1.9369,1.9344,1.9339,1.9331,1.9335,1.9341,1.9339,1.9339,1.9338,1.933,1.933,1.933,1.933,0,1.9621,1.9614,1.9595,1.9574,1.9558,1.954,1.9522,1.9512,1.9493,1.9477,1.9453,1.9438,1.9406,1.9381,1.9355,1.934,1.9331,1.9329,1.9325,1.9329,1.9336,1.9332,1.9355,1.933,1.933,1.933,1.933,1.933,1.9609,1.9596,1.9576,1.9556,1.9541,1.9524,1.9509,1.9495,1.9475,1.9449,1.9441,1.9416,1.9394,1.9358,1.9343,1.9323,1.9322,1.9317,1.9315,1.9314,1.9314,1.9341,1.9318,1.9318,1.9318,1.9318,1.9318,0,1.9589,1.9577,1.9558,1.9534,1.9518,1.9514,1.9493,1.9479,1.9459,1.944,1.942,1.9393,1.937,1.9349,1.9324,1.9312,1.9307,1.9306,1.9306,1.9302,1.9316,1.9322,1.931,1.931,1.931,1.931,1.931,1.931,1.9577,1.9555,1.9546,1.9516,1.9503,1.948,1.9469,1.9453,1.9438,1.9409,1.939,1.9377,1.9357,1.9331,1.9309,1.9304,1.9295,1.9294,1.9287,1.93,1.9301,1.9302,1.9307,1.9293,1.9293,1.9275,1.9275,1.9275]}]]